Location: Melque
(41.0517°N, 4.4694°W)
Time: 08:54:51
(UTC+00:00)

Meteor 2-20 - Pass Details

Date: 21 March 2026
Orbit: 938 x 958 km, 82.5° (Epoch: 20 April)

Event Time Altitude Azimuth Distance (km) Brightness Sun altitude
Rises 19:14:31 0° 332° (NNW) 3,644 8.1 -9.0°
Reaches altitude 10° 19:18:19 10° 309° (NW) 2,690 7.8 -9.7°
Maximum altitude 19:21:19 14° 280° (W) 2,394 8.0 -10.3°
Drops below altitude 10° 19:24:19 10° 250° (WSW) 2,676 7.8 -10.8°
Sets 19:28:05 0° 227° (SW) 3,612 8.0 -11.5°
